User: anonymous   Login
Location: Gunung Kajang
(2.4167°N, 113.7167°E)
Time: 00:24:59
(UTC+00:00)
Language:

Meteor 2-3 Rocket - Orbit

View from above orbital plane
View from above orbital plane
View from above satellite
View from above satellite

Ground track
Ground track

The orbit data is extracted from the following two-line orbital elements,

1 10515U 77117B   22225.53127752  .00000197  00000-0  10656-3 0  9998
2 10515  81.2427 249.0043 0030168 326.7895  33.1381 14.08759139294706
Epoch (UTC): 13 August 2022 12:45:02
Eccentricity: 0.0030168
inclination: 81.2427°
perigee height: 842 km
apogee height: 885 km
right ascension of ascending node: 249.0043°
argument of perigee: 326.7895°
revolutions per day: 14.08759139
mean anomaly at epoch: 33.1381°
orbit number at epoch: 29470

The dashed part of the orbit path shows where the satellite is in the earth's shadow,  

DLR